Location: L�Adrech
(44.2500°N, 6.4167°E)
Time: 12:11:36
(UTC+00:00)

Cosmos 1680 Rocket - Pass Details

Date: 07 June 2020
Orbit: 759 x 782 km, 74.1° (Epoch: 11 July)

Event Time Altitude Azimuth Distance (km) Brightness Sun altitude
Rises 03:07:50 0° 182° (S) 3,223 6.3 -7.0°
Reaches altitude 10° 03:10:15 10° 177° (S) 2,305 5.6 -6.6°
Maximum altitude 03:15:16 48° 104° (ESE) 1,010 4.5 -6.0°
Drops below altitude 10° 03:20:20 10° 31° (NNE) 2,335 7.5 -5.3°
Sets 03:22:48 0° 26° (NNE) 3,270 8.2 -4.9°
